Regional Weather Roundup
Issued by NWS Mobile, AL

Home | Current Version | Previous Version | Text Only | Print | Product List | Glossary On
Versions: 1 2 3 4 5 6 7 8 9 10 11 12 13 14 15 16 17 18 19 20 21 22 23 24 25 26 27 28 29 30 31 32 33 34 35 36 37 38 39 40 41 42 43 44 45 46 47 48 49 50
000
ASUS44 KMOB 281916
RWRMOB
REGIONAL WEATHER ROUNDUP
NATIONAL WEATHER SERVICE MOBILE AL
200 PM CDT SAT MAR 28 2015

ALZ061>064-282000-
COASTAL ALABAMA


CITY           SKY/WX    TMP DP  RH WIND       PRES   REMARKS
MOBILE REG APT MOSUNNY   63  34  33 W7        30.22F
BROOKLEY FIELD SUNNY     59  35  40 E8        30.24F
GULF SHORES    CLEAR     62  37  39 SW6       30.22F

$$

ALZ051>060-282000-
INTERIOR SOUTHWEST AND SOUTH CENTRAL ALABAMA


CITY           SKY/WX    TMP DP  RH WIND       PRES   REMARKS
ANDALUSIA/OPP  SUNNY     63  26  24 N15G24    30.21F
EVERGREEN      MOSUNNY   58  29  33 N12G17    30.22F
FLORALA        CLEAR     60  25  26 N12G22    30.21F
GREENVILLE     FAIR      57  25  29 W14G22    30.21F

$$

FLZ001>006-282000-
WESTERN FLORIDA PANHANDLE


CITY           SKY/WX    TMP DP  RH WIND       PRES   REMARKS
CRESTVIEW      SUNNY     62  26  25 NW15G24   30.21F
DESTIN         SUNNY     64  31  28 NE8       30.20F
DUKE FIELD     MOSUNNY   62  25  25 NW13G20   30.19F
MARY ESTHER    SUNNY     63  23  21 N14G22    30.19F
MILTON         CLEAR     64  31  28 NW9       30.21F
PENSACOLA      SUNNY     62  31  31 N10G18    30.21F
NAS PENSACOLA  MOSUNNY   63  33  32 N9        30.21F
VALPARAISO     MOSUNNY   64  26  24 N15       30.19F

$$

...MARINE OBSERVATIONS...

STATION/POSITION TIME  SKY/WX   TEMP    WIND        PRES    VSBY
                                AIR SEA DIR/SP/G
                 (UTC)          (F)     (DEG/KT/KT) (MB)    (MI)
PASCAGOULA       1800            56     180/  9/ 13 1024.2F
PETIT BOIS ISL   1800            55     180/  7/ 10 1024.8F
E DAUPHIN ISLAND 1900            55      90/  2/  3 1023.6F
MIDDLE BAY LIGHT 1800                    10/  8     1023.4F
USCG MOBILE BAY  1800            55 63  110/  8/ 13 1023.0
STATE DOCKS      1800            61 63              1023.7F
MEAHER PARK      1800            57     350/  7     1024.4F
FORT MORGAN      1800            54      30/  3/  5 1024.1F
12 S ORANGE BCH  1850            55 67  260/  4/  6 1023.4F
WVE H/P(F/S)=  1/ 6

PENSACOLA BAY    1800            61 69  190/  2/  4 1024.0F
64 S DAUPHIN ISL 1850            57 72   80/  6/ 10 1024.1F
WVE H/P(F/S)=  2/ 5

115 SE PENSACOLA 1850            58 75  360/ 10/ 16 1023.5S
WVE H/P(F/S)=  3/ 5

MID GULF/42001   1850            74 80   20/  8/ 10 1023.0F
WVE H/P(F/S)=  4/ 7

EAST GULF/42003  1850            68 74   20/ 10/ 14 1022.0F
WVE H/P(F/S)=  5/ 7


$$

...NEARBY LOCATIONS

CITY           SKY/WX    TMP DP  RH WIND       PRES   REMARKS
GULFPORT       SUNNY     59  39  47 S8        30.23F
BILOXI         SUNNY     60  41  48 S10       30.23F
PASCAGOULA     SUNNY     62  39  42 S7        30.22F
HATTIESBURG    CLOUDY    59  36  42 CALM      30.23F
LAUREL         CLOUDY    57  34  41 NE3       30.24F
MERIDIAN       CLOUDY    53  28  38 N7        30.26F
MERIDIAN NAS   CLOUDY    53  26  35 N12       30.27S
MONTGOMERY     CLOUDY    54  26  34 W12G20    30.24F
MAXWELL AFB    CLOUDY    53  26  34 NW13      30.22F
TROY           SUNNY     57  27  31 NW15G25   30.21F
FORT RUCKER    SUNNY     59  28  30 N16G23    30.18F
DALEVILLE      SUNNY     59  21  23 N12G21    30.18F
DOTHAN         SUNNY     58  26  29 NW17G26   30.21F

$$

...OTHER SURROUNDING LOCATIONS...

CITY           SKY/WX    TMP DP  RH WIND       PRES   REMARKS
BIRMINGHAM     PTSUNNY   51  17  26 N12       30.25F
TUSCALOOSA     CLOUDY    48  21  34 NW9       30.29R
COLUMBUS GA    SUNNY     55  18  23 N12G21    30.17F
PANAMA CITY    NOT AVBL
TALLAHASSEE    MOSUNNY   63  27  25 NW16G25   30.16F
BATON ROUGE    SUNNY     69  41  36 W3        30.19F
NEW ORLEANS    MOSUNNY   67  43  41 VRB5      30.20F
SLIDELL        SUNNY     64  40  41 VRB7      30.21F
JACKSON        CLOUDY    53  32  44 NE7       30.24F
MCCOMB         MOSUNNY   64  38  38 CALM      30.20F

$$

...SURROUNDING MARINE OBSERVATIONS...

STATION/POSITION TIME  SKY/WX   TEMP    WIND        PRES    VSBY
                                AIR SEA DIR/SP/G
                 (UTC)          (F)     (DEG/KT/KT) (MB)    (MI)
WAVELAND         1800            54 64  160/  8/ 11 1024.2F
PASCAGOULA RGN A 1800            57     190/  7/  9 1023.9F
PASCAGOULA PORT  1800               68                N/A
GRAND ISLE       1800            63 66  110/  6/ 10 1023.6F
SOUTHWEST PASS   1900            60      80/ 12/ 13 1023.1F
PILOT STATION E  1800            67 52   70/ 10/ 13 1024.1F
SHELL BEACH      1800            60 66   90/  6/  9 1023.7F
PANAMA CITY      1800            57 67  340/  9/ 14 1022.4F
APALACHICOLA     1800            60 67   10/  7/ 12 1022.1F
TYNDALL TOWER C  1900            55     280/ 12/ 15 1022.2F
S APLCHCLA/42036 1850            58 68  310/ 14/ 17 1022.3F
WVE H/P(F/S)=  4/ 6


$$



USA.gov is the U.S. government's official web portal to all federal, state and local government web resources and services.